Weather History for New Philadelphia, OH

Change the Weather History Date:

Saturday, April 21, 2012

  Actual Average Record
Temperature  
Mean Temperature 50 °F 53 °F  
Max Temperature 58 °F 65 °F 85 °F (1977)
Min Temperature 41 °F 40 °F 25 °F (1981)
Degree Days  
Heating Degree Days 15 13  
Month to date heating degree days 299 330  
Since 1 July heating degree days 2885 5316  
Cooling Degree Days 0 0  
Month to date cooling degree days 5 0  
Year to date cooling degree days 18 1  
Moisture  
Dew Point 39 °F    
Average Humidity 81    
Maximum Humidity 89    
Minimum Humidity 72    
Precipitation  
Precipitation 0.56 in 0.10 in 1.70 in (1964)
Month to date precipitation 0.95 2.33  
Year to date precipitation 7.86 10.33  
Sea Level Pressure  
Sea Level Pressure 29.87 in    
Wind  
Wind Speed 7 mph (NNW)    
Max Wind Speed 15 mph    
Max Gust Speed 20 mph    
Visibility 8 miles    
Events Rain    
T = Trace of Precipitation, MM = Missing Value Source: NWS Daily Summary

Daily Weather History Graph

Daily Weather History Graph

Search for Another Location

Airport:

Trip Planner

Search our weather history database for the weather conditions in past years. The results will help you decide how hot, cold, wet, or windy it might be!

Date:

Astronomy

Apr. 21, 2012 Rise Set
Actual Time 6:37 AM EDT 8:11 PM EDT
Civil Twilight 6:08 AM EDT 8:40 PM EDT
Nautical Twilight 5:34 AM EDT 9:15 PM EDT
Astronomical Twilight 4:57 AM EDT 9:52 PM EDT
Moon 6:32 AM EDT (4/21) 8:51 PM EDT (4/21)
Length of Visible Light 14h 31m
Length of Day
13h 33m
New Moon, 0% of the Moon is Illuminated
Apr 21
New Moon
Apr 29
First Quarter
May 5
Full
May 12
Last Quarter
May 20
New

Hourly Weather History & Observations

Time (EDT) Temp. Windchill Dew Point Humidity Pressure Visibility Wind Dir Wind Speed Gust Speed Precip Events Conditions
12:53 AM 57.9 °F - 48.9 °F 72% 29.74 in 10.0 mi NNW 4.6 mph - N/A   Mostly Cloudy
1:53 AM 55.9 °F - 48.0 °F 75% 29.76 in 10.0 mi North 5.8 mph - N/A   Overcast
2:53 AM 55.0 °F - 46.9 °F 74% 29.76 in 10.0 mi North 8.1 mph - N/A   Overcast
3:53 AM 52.0 °F - 46.0 °F 80% 29.77 in 8.0 mi NW 6.9 mph - 0.00 in Rain Light Rain
4:20 AM 50.0 °F - 46.4 °F 87% 29.78 in 8.0 mi NW 10.4 mph - 0.00 in   Overcast
4:29 AM 48.2 °F - 44.6 °F 87% 29.78 in 9.0 mi NW 9.2 mph 18.4 mph 0.00 in Rain Light Rain
4:53 AM 46.9 °F - 43.0 °F 86% 29.79 in 10.0 mi NNW 9.2 mph - 0.02 in Rain Light Rain
5:17 AM 44.6 °F 39.2 °F 41.0 °F 87% 29.79 in 8.0 mi NNW 10.4 mph - 0.03 in Rain Light Rain
5:35 AM 44.6 °F 38.8 °F 41.0 °F 87% 29.80 in 5.0 mi NW 11.5 mph - 0.06 in Rain Rain
5:44 AM 44.6 °F 38.1 °F 39.2 °F 81% 29.80 in 5.0 mi NNW 13.8 mph - 0.08 in Rain Rain
5:48 AM 44.6 °F 39.7 °F 39.2 °F 81% 29.80 in 5.0 mi NNW 9.2 mph 18.4 mph 0.09 in Rain Rain
5:53 AM 43.0 °F 38.2 °F 39.0 °F 86% 29.82 in 5.0 mi NW 8.1 mph 18.4 mph 0.10 in Rain Rain
6:29 AM 42.8 °F 40.1 °F 39.2 °F 87% 29.81 in 5.0 mi Variable 4.6 mph - 0.09 in Rain Light Rain
6:38 AM 42.8 °F 38.6 °F 39.2 °F 87% 29.83 in 7.0 mi NW 6.9 mph - 0.10 in Rain Light Rain
6:45 AM 42.8 °F 38.6 °F 39.2 °F 87% 29.85 in 8.0 mi WNW 6.9 mph - 0.10 in Rain Light Rain
6:53 AM 43.0 °F 37.7 °F 39.0 °F 86% 29.85 in 6.0 mi NW 9.2 mph - 0.12 in Rain Rain
7:33 AM 42.8 °F 39.3 °F 37.4 °F 81% 29.84 in 8.0 mi North 5.8 mph - 0.07 in Rain Light Rain
7:53 AM 42.1 °F 37.7 °F 37.9 °F 85% 29.84 in 8.0 mi NNW 6.9 mph - 0.08 in Rain Light Rain
8:53 AM 42.1 °F 38.4 °F 37.9 °F 85% 29.85 in 8.0 mi NNW 5.8 mph - 0.04 in Rain Light Rain
9:16 AM 42.8 °F 38.6 °F 37.4 °F 81% 29.85 in 6.0 mi NNW 6.9 mph - 0.02 in Rain Light Rain
9:26 AM 42.8 °F 39.3 °F 37.4 °F 81% 29.85 in 7.0 mi North 5.8 mph - 0.03 in Rain Light Rain
9:53 AM 42.1 °F 36.6 °F 37.9 °F 85% 29.87 in 10.0 mi NW 9.2 mph - 0.04 in Rain Light Rain
10:53 AM 42.1 °F 36.6 °F 37.9 °F 85% 29.89 in 10.0 mi NNW 9.2 mph - 0.03 in Rain Light Rain
11:53 AM 42.1 °F 37.7 °F 37.9 °F 85% 29.90 in 7.0 mi NNW 6.9 mph - 0.00 in Rain Light Rain
12:15 PM 42.8 °F 38.6 °F 37.4 °F 81% 29.89 in 2.5 mi NNW 6.9 mph - 0.02 in Rain Light Rain
12:26 PM 42.8 °F 37.5 °F 37.4 °F 81% 29.89 in 3.0 mi NNW 9.2 mph - 0.04 in Rain Light Rain
12:48 PM 42.8 °F 40.1 °F 37.4 °F 81% 29.90 in 5.0 mi NNW 4.6 mph - 0.06 in Rain Light Rain
12:53 PM 43.0 °F 38.8 °F 39.0 °F 86% 29.91 in 5.0 mi NNW 6.9 mph - 0.07 in Rain Rain
1:01 PM 42.8 °F 40.1 °F 39.2 °F 87% 29.90 in 5.0 mi NW 4.6 mph - 0.01 in Rain Light Rain
1:21 PM 42.8 °F 37.5 °F 37.4 °F 81% 29.90 in 9.0 mi NNW 9.2 mph - 0.02 in Rain Light Rain
1:53 PM 43.0 °F 38.8 °F 37.9 °F 82% 29.91 in 10.0 mi NNW 6.9 mph - 0.03 in Rain Light Rain
2:53 PM 43.0 °F 38.2 °F 37.9 °F 82% 29.92 in 10.0 mi North 8.1 mph - 0.00 in   Overcast
3:18 PM 42.8 °F 38.0 °F 37.4 °F 81% 29.92 in 6.0 mi NW 8.1 mph - N/A   Overcast
3:53 PM 43.0 °F 38.8 °F 37.9 °F 82% 29.92 in 7.0 mi NW 6.9 mph - 0.01 in Rain Light Rain
4:11 PM 42.8 °F 38.0 °F 39.2 °F 87% 29.91 in 7.0 mi North 8.1 mph - 0.01 in Rain Light Rain
4:26 PM 42.8 °F 38.0 °F 37.4 °F 81% 29.91 in 10.0 mi North 8.1 mph - 0.01 in Rain Light Rain
4:35 PM 42.8 °F 38.0 °F 37.4 °F 81% 29.91 in 10.0 mi North 8.1 mph - 0.01 in Rain Light Rain
4:53 PM 43.0 °F 39.5 °F 37.9 °F 82% 29.93 in 10.0 mi North 5.8 mph - 0.01 in Rain Light Rain
5:53 PM 42.1 °F 37.7 °F 37.9 °F 85% 29.94 in 10.0 mi North 6.9 mph - 0.01 in Rain Light Rain
6:53 PM 42.1 °F 38.4 °F 37.0 °F 82% 29.95 in 10.0 mi North 5.8 mph - N/A   Overcast
7:53 PM 42.1 °F 37.7 °F 36.0 °F 79% 29.95 in 10.0 mi North 6.9 mph - N/A   Overcast
8:53 PM 42.1 °F 37.7 °F 36.0 °F 79% 29.96 in 10.0 mi North 6.9 mph - N/A   Overcast
9:53 PM 41.0 °F 37.1 °F 36.0 °F 82% 29.98 in 10.0 mi North 5.8 mph - N/A   Overcast
10:53 PM 41.0 °F 35.8 °F 35.1 °F 79% 29.98 in 9.0 mi NNW 8.1 mph - N/A   Overcast